QFA12 KLAX-YSSY

Flight info

Callsign QFA12
Flight time N/A
Altitude 34000
Route SUMMR2 FICKY DCT 30N125W 28N130W 26N135W 23N140W 17N150W 13N155W 08N160W 04N165W 01N170W 02S175W 05S180W 10S175E 14S170E 22S163E DCT ATNAT G595 INVUS DCT WARTY DCT RIKNI N774 MARLN
Aircraft A388/J-SADE2E3FGHIJ3J4J5M1RWXY/LB1D1

Departure

Time 2026-05-07 21:02
Airport Los Angeles International Airport (KLAX)

Arrival

Time N/A
Airport Sydney Kingsford Smith International Airport (YSSY)
Time Latitude Longitude Altitude Speed Heading
2026-05-07 20:25 33.93943 -118.41063 98 ft 0 kts 82°
2026-05-07 20:47 33.93942 -118.41074 97 ft 3 kts 79°
2026-05-07 20:47 33.93937 -118.41097 98 ft 3 kts 70°
2026-05-07 20:47 33.93929 -118.41118 96 ft 3 kts 59°
2026-05-07 20:48 33.93918 -118.41137 97 ft 3 kts 46°
2026-05-07 20:48 33.93903 -118.41151 96 ft 3 kts 30°
2026-05-07 20:48 33.93887 -118.41159 97 ft 3 kts
2026-05-07 20:48 33.93874 -118.41160 97 ft 1 kts 352°
2026-05-07 20:49 33.93873 -118.41160 97 ft 0 kts 352°
2026-05-07 20:52 33.93874 -118.41160 97 ft 0 kts 352°
2026-05-07 20:52 33.93886 -118.41162 96 ft 7 kts 352°
2026-05-07 20:52 33.93976 -118.41177 99 ft 18 kts 352°
2026-05-07 20:52 33.94128 -118.41197 100 ft 26 kts 353°
2026-05-07 20:53 33.94331 -118.41229 100 ft 31 kts 352°
2026-05-07 20:53 33.94460 -118.41249 99 ft 16 kts 352°
2026-05-07 20:53 33.94562 -118.41264 99 ft 12 kts 353°
2026-05-07 20:53 33.94645 -118.41276 100 ft 10 kts 353°
2026-05-07 20:54 33.94722 -118.41287 99 ft 9 kts 353°
2026-05-07 20:54 33.94792 -118.41255 102 ft 13 kts 65°
2026-05-07 20:54 33.94811 -118.41105 100 ft 23 kts 84°
2026-05-07 20:54 33.94830 -118.40913 102 ft 11 kts 82°
2026-05-07 20:55 33.94842 -118.40808 99 ft 14 kts 83°
2026-05-07 20:55 33.94852 -118.40711 99 ft 12 kts 83°
2026-05-07 20:55 33.94859 -118.40634 99 ft 12 kts 83°
2026-05-07 20:55 33.94873 -118.40492 101 ft 22 kts 83°
2026-05-07 20:56 33.94899 -118.40269 100 ft 31 kts 82°
2026-05-07 20:56 33.94916 -118.40080 101 ft 25 kts 82°
2026-05-07 20:56 33.94931 -118.39967 98 ft 13 kts 71°
2026-05-07 20:56 33.94943 -118.39939 99 ft 0 kts 48°
2026-05-07 20:59 33.94980 -118.39914 99 ft 9 kts
2026-05-07 20:59 33.95028 -118.39935 100 ft 6 kts 303°
2026-05-07 20:59 33.95039 -118.39978 101 ft 5 kts 265°
2026-05-07 20:59 33.95037 -118.40001 101 ft 0 kts 264°
2026-05-07 21:01 33.95029 -118.40087 100 ft 38 kts 263°
2026-05-07 21:01 33.94963 -118.40723 105 ft 111 kts 261°
2026-05-07 21:01 33.94848 -118.41851 103 ft 157 kts 262°
2026-05-07 21:01 33.94723 -118.43204 500 ft 165 kts 263°
2026-05-07 21:02 33.94549 -118.44570 986 ft 169 kts 239°
2026-05-07 21:02 33.93575 -118.45402 1262 ft 185 kts 198°
2026-05-07 21:02 33.92459 -118.46150 1714 ft 185 kts 226°
2026-05-07 21:02 33.91510 -118.47264 1984 ft 199 kts 222°
2026-05-07 21:03 33.90411 -118.48394 2122 ft 216 kts 221°
2026-05-07 21:03 33.89210 -118.49631 2263 ft 238 kts 221°
2026-05-07 21:03 33.87892 -118.50980 2486 ft 259 kts 222°
2026-05-07 21:03 33.86497 -118.52392 3042 ft 264 kts 222°
2026-05-07 21:04 33.85075 -118.53833 3629 ft 267 kts 221°
2026-05-07 21:04 33.83651 -118.55250 4289 ft 266 kts 222°
2026-05-07 21:04 33.82211 -118.56658 4947 ft 267 kts 221°
2026-05-07 21:04 33.80774 -118.58087 5517 ft 271 kts 221°
2026-05-07 21:05 33.79316 -118.59532 6122 ft 272 kts 221°
2026-05-07 21:05 33.77885 -118.61048 6636 ft 276 kts 227°
2026-05-07 21:05 33.76561 -118.62748 7144 ft 281 kts 229°
2026-05-07 21:05 33.75241 -118.64489 7710 ft 284 kts 229°
2026-05-07 21:06 33.73917 -118.66237 8211 ft 289 kts 229°
2026-05-07 21:06 33.72547 -118.68033 8765 ft 293 kts 228°
2026-05-07 21:06 33.71152 -118.69853 9257 ft 299 kts 228°
2026-05-07 21:06 33.69742 -118.71688 9885 ft 300 kts 227°
2026-05-07 21:07 33.68301 -118.73558 10244 ft 311 kts 227°
2026-05-07 21:07 33.66789 -118.75520 10398 ft 328 kts 227°
2026-05-07 21:07 33.65203 -118.77576 10553 ft 343 kts 227°
2026-05-07 21:07 33.63547 -118.79721 10789 ft 355 kts 227°
2026-05-07 21:08 33.61861 -118.81904 11286 ft 358 kts 227°
2026-05-07 21:08 33.60160 -118.84103 11747 ft 362 kts 227°
2026-05-07 21:08 33.58437 -118.86332 12247 ft 365 kts 227°
2026-05-07 21:08 33.56702 -118.88574 12719 ft 369 kts 227°
2026-05-07 21:09 33.54974 -118.90805 13211 ft 372 kts 226°
2026-05-07 21:09 33.53202 -118.93091 13694 ft 376 kts 226°
2026-05-07 21:09 33.51413 -118.95398 14143 ft 379 kts 226°
2026-05-07 21:09 33.49616 -118.97714 14613 ft 380 kts 226°
2026-05-07 21:10 33.47807 -119.00045 15036 ft 383 kts 226°
2026-05-07 21:10 33.45982 -119.02394 15484 ft 386 kts 226°
2026-05-07 21:10 33.44145 -119.04756 15933 ft 388 kts 226°
2026-05-07 21:10 33.42297 -119.07132 16365 ft 391 kts 226°
2026-05-07 21:11 33.40437 -119.09521 16798 ft 393 kts 226°
2026-05-07 21:11 33.38564 -119.11926 17236 ft 396 kts 226°
2026-05-07 21:11 33.34784 -119.16773 18079 ft 401 kts 226°
2026-05-07 21:12 33.32872 -119.19223 18485 ft 403 kts 227°
2026-05-07 21:12 33.30957 -119.21673 18867 ft 405 kts 227°
2026-05-07 21:12 33.29022 -119.24150 19234 ft 407 kts 227°
2026-05-07 21:12 33.27087 -119.26624 19567 ft 409 kts 227°
2026-05-07 21:13 33.25164 -119.29081 19910 ft 412 kts 227°
2026-05-07 21:13 33.23199 -119.31589 20240 ft 414 kts 227°
2026-05-07 21:13 33.21205 -119.34133 20644 ft 415 kts 227°
2026-05-07 21:13 33.19242 -119.36635 20800 ft 423 kts 227°
2026-05-07 21:14 33.17209 -119.39226 20879 ft 432 kts 227°
2026-05-07 21:14 33.15129 -119.41874 20982 ft 440 kts 227°
2026-05-07 21:14 33.13018 -119.44560 21079 ft 448 kts 227°
2026-05-07 21:14 33.10868 -119.47292 21163 ft 456 kts 227°
2026-05-07 21:15 33.08675 -119.50077 21292 ft 462 kts 227°
2026-05-07 21:15 33.06457 -119.52892 21403 ft 469 kts 227°
2026-05-07 21:15 33.04210 -119.55741 21689 ft 471 kts 227°
2026-05-07 21:15 33.01952 -119.58601 21949 ft 474 kts 227°
2026-05-07 21:16 32.99698 -119.61454 22316 ft 476 kts 227°
2026-05-07 21:16 32.97415 -119.64342 22676 ft 477 kts 227°
2026-05-07 21:16 32.95130 -119.67231 22955 ft 480 kts 227°
2026-05-07 21:16 32.92871 -119.70085 23286 ft 483 kts 227°
2026-05-07 21:17 32.90556 -119.73006 23667 ft 484 kts 227°